Terminal Aerodrome Forecast
Issued by NWS Houston/Galveston TX

Home | Current Version | Previous Version | Text Only | Print | Product List | Glossary On
Versions: 1 2 3 4 5 6 7 8 9 10 11 12 13 14 15 16 17 18 19 20 21 22 23 24 25 26 27 28 29 30 31 32 33 34 35 36 37 38 39 40 41 42 43 44 45 46 47 48 49
000
FTUS44 KHGX 280906 AAA
TAFHOU
TAF AMD
KHOU 280906Z 2809/2906 36011KT P6SM -RA BKN014 OVC100
     FM281600 34009KT P6SM VCSH OVC008
     FM282200 34008KT P6SM OVC010
     FM290500 35005KT 4SM BR OVC005=

USA.gov is the U.S. government's official web portal to all federal, state and local government web resources and services.